When you browse on this site, cookies collect data to enhance your experience and personalize the content and advertising you see.
Visit our Privacy Policy to learn more. By continuing to use the site, you agree to this use of cookies and data.
  • In Slovakia
  • List of Countries
  • For 7 days
  • Water Temperature
  • Weather Map
  • Weather Widgets
  • user-avatar
    Login

    Hourly Weather Abomey

    Today, 22 August, Thursday

    Time Temperature Precipitation Wind Pressure Humidity
    00:00 +24°C° 0 mm 2 mps 740 mmHg 92%
    01:00 +24°C° 0 mm 2 mps 740 mmHg 93%
    02:00 +24°C° 0 mm 2 mps 739 mmHg 94%
    03:00 +24°C° 0 mm 2 mps 739 mmHg 95%
    04:00 +24°C° 0.1 mm 2 mps 740 mmHg 95%
    05:00 +24°C° 0.1 mm 2 mps 740 mmHg 95%
    06:00 +24°C° 0.1 mm 2 mps 740 mmHg 95%
    07:00 +25°C° 0 mm 2 mps 741 mmHg 90%
    08:00 +26°C° 0 mm 3 mps 741 mmHg 85%
    09:00 +27°C° 0 mm 3 mps 741 mmHg 80%
    10:00 +28°C° 0.8 mm 3 mps 741 mmHg 77%
    11:00 +29°C° 0.8 mm 3 mps 741 mmHg 74%
    12:00 +30°C° 0.8 mm 3 mps 740 mmHg 72%
    13:00 +30°C° 2 mm 3 mps 740 mmHg 74%
    14:00 +29°C° 2 mm 3 mps 739 mmHg 75%
    15:00 +29°C° 2 mm 3 mps 738 mmHg 77%
    16:00 +28°C° 1.8 mm 2 mps 738 mmHg 81%
    17:00 +27°C° 1.8 mm 2 mps 739 mmHg 85%
    18:00 +26°C° 1.8 mm 2 mps 739 mmHg 89%
    19:00 +26°C° 0.6 mm 2 mps 739 mmHg 90%
    20:00 +25°C° 0.6 mm 2 mps 740 mmHg 91%
    21:00 +25°C° 0.6 mm 2 mps 741 mmHg 92%
    22:00 +25°C° 0.3 mm 2 mps 741 mmHg 93%
    23:00 +25°C° 0.3 mm 2 mps 741 mmHg 93%

    Tomorrow, 23 August, Friday

    Time Temperature Precipitation Wind Pressure Humidity
    00:00 +24°C° 0.3 mm 2 mps 741 mmHg 94%
    01:00 +24°C° 0.4 mm 2 mps 740 mmHg 94%
    02:00 +24°C° 0.4 mm 2 mps 740 mmHg 94%
    03:00 +24°C° 0.4 mm 2 mps 739 mmHg 94%
    04:00 +24°C° 0.3 mm 2 mps 740 mmHg 95%
    05:00 +24°C° 0.3 mm 2 mps 740 mmHg 95%
    06:00 +24°C° 0.3 mm 2 mps 741 mmHg 95%
    07:00 +24°C° 0.2 mm 3 mps 741 mmHg 94%
    08:00 +24°C° 0.2 mm 3 mps 741 mmHg 93%
    09:00 +24°C° 0.2 mm 3 mps 742 mmHg 92%
    10:00 +25°C° 0 mm 3 mps 741 mmHg 90%
    11:00 +25°C° 0 mm 3 mps 741 mmHg 88%
    12:00 +26°C° 0 mm 3 mps 741 mmHg 85%
    13:00 +27°C° 0.6 mm 3 mps 740 mmHg 83%
    14:00 +28°C° 0.6 mm 3 mps 740 mmHg 80%
    15:00 +28°C° 0.6 mm 3 mps 739 mmHg 78%
    16:00 +27°C° 1 mm 3 mps 739 mmHg 81%
    17:00 +26°C° 1 mm 3 mps 739 mmHg 85%
    18:00 +25°C° 1 mm 3 mps 740 mmHg 89%
    19:00 +25°C° 0.3 mm 3 mps 740 mmHg 90%
    20:00 +24°C° 0.3 mm 3 mps 741 mmHg 91%
    21:00 +24°C° 0.3 mm 3 mps 742 mmHg 92%
    22:00 +24°C° 0.3 mm 3 mps 741 mmHg 92%
    23:00 +24°C° 0.3 mm 3 mps 741 mmHg 93%

    Day after tomorrow, 24 August, Saturday

    Time Temperature Precipitation Wind Pressure Humidity
    00:00 +24°C° 0.3 mm 3 mps 741 mmHg 93%
    01:00 +22°C° 0.3 mm 3 mps 741 mmHg 93%
    02:00 +22°C° 0.3 mm 3 mps 741 mmHg 94%
    03:00 +22°C° 0.3 mm 3 mps 740 mmHg 94%
    04:00 +23°C° 0 mm 2 mps 741 mmHg 94%
    05:00 +23°C° 0 mm 2 mps 741 mmHg 94%
    06:00 +23°C° 0 mm 2 mps 741 mmHg 94%
    07:00 +23°C° 0 mm 2 mps 742 mmHg 93%
    08:00 +24°C° 0 mm 2 mps 742 mmHg 91%
    09:00 +24°C° 0 mm 2 mps 742 mmHg 90%
    10:00 +24°C° 0 mm 2 mps 742 mmHg 88%
    11:00 +25°C° 0 mm 3 mps 742 mmHg 86%
    12:00 +25°C° 0 mm 3 mps 741 mmHg 85%
    13:00 +25°C° 0 mm 3 mps 741 mmHg 84%
    14:00 +26°C° 0 mm 3 mps 740 mmHg 83%
    15:00 +26°C° 0 mm 3 mps 740 mmHg 82%
    16:00 +25°C° 0 mm 2 mps 740 mmHg 84%
    17:00 +25°C° 0 mm 2 mps 740 mmHg 86%
    18:00 +24°C° 0 mm 1 mps 741 mmHg 88%
    19:00 +24°C° 0 mm 2 mps 741 mmHg 88%
    20:00 +24°C° 0 mm 2 mps 742 mmHg 88%
    21:00 +24°C° 0 mm 2 mps 742 mmHg 87%
    22:00 +24°C° 0 mm 2 mps 742 mmHg 88%
    23:00 +24°C° 0 mm 2 mps 742 mmHg 88%

    25 August, Sunday

    Time Temperature Precipitation Wind Pressure Humidity
    00:00 +24°C° 0 mm 2 mps 742 mmHg 89%
    01:00 +23°C° 0 mm 2 mps 742 mmHg 89%
    02:00 +23°C° 0 mm 2 mps 741 mmHg 90%
    03:00 +23°C° 0 mm 2 mps 740 mmHg 90%
    04:00 +23°C° 0 mm 2 mps 741 mmHg 90%
    05:00 +23°C° 0 mm 2 mps 741 mmHg 89%
    06:00 +23°C° 0 mm 2 mps 741 mmHg 89%
    07:00 +24°C° 0 mm 2 mps 742 mmHg 84%
    08:00 +25°C° 0 mm 3 mps 742 mmHg 79%
    09:00 +27°C° 0 mm 3 mps 742 mmHg 74%
    10:00 +28°C° 0 mm 3 mps 742 mmHg 70%
    11:00 +29°C° 0 mm 3 mps 742 mmHg 65%
    12:00 +30°C° 0 mm 3 mps 741 mmHg 61%
    13:00 +30°C° 0 mm 3 mps 741 mmHg 62%
    14:00 +30°C° 0 mm 3 mps 740 mmHg 63%
    15:00 +30°C° 0 mm 3 mps 740 mmHg 64%
    16:00 +29°C° 0.2 mm 3 mps 740 mmHg 71%
    17:00 +27°C° 0.2 mm 3 mps 740 mmHg 77%
    18:00 +26°C° 0.2 mm 3 mps 740 mmHg 83%
    19:00 +25°C° 0 mm 3 mps 741 mmHg 84%
    20:00 +24°C° 0 mm 3 mps 741 mmHg 85%
    21:00 +24°C° 0 mm 3 mps 742 mmHg 86%
    22:00 +22°C° 0 mm 3 mps 742 mmHg 87%
    23:00 +22°C° 0 mm 3 mps 741 mmHg 88%

    26 August, Monday

    Time Temperature Precipitation Wind Pressure Humidity
    00:00 +22°C° 0 mm 3 mps 741 mmHg 89%
    01:00 +23°C° 0 mm 2 mps 741 mmHg 90%
    02:00 +23°C° 0 mm 2 mps 741 mmHg 91%
    03:00 +21°C° 0 mm 2 mps 740 mmHg 92%
    04:00 +21°C° 0 mm 2 mps 741 mmHg 93%
    05:00 +21°C° 0 mm 2 mps 741 mmHg 94%
    06:00 +22°C° 0 mm 1 mps 741 mmHg 95%
    07:00 +23°C° 0 mm 2 mps 741 mmHg 88%
    08:00 +25°C° 0 mm 2 mps 742 mmHg 82%
    09:00 +27°C° 0 mm 2 mps 742 mmHg 75%
    10:00 +28°C° 0 mm 2 mps 742 mmHg 69%
    11:00 +29°C° 0 mm 3 mps 742 mmHg 63%
    12:00 +31°C° 0 mm 3 mps 741 mmHg 57%
    13:00 +31°C° 0 mm 3 mps 741 mmHg 57%
    14:00 +30°C° 0 mm 3 mps 740 mmHg 58%
    15:00 +30°C° 0 mm 3 mps 739 mmHg 59%
    16:00 +29°C° 0 mm 3 mps 739 mmHg 63%
    17:00 +28°C° 0 mm 3 mps 739 mmHg 68%
    18:00 +26°C° 0 mm 3 mps 739 mmHg 73%
    19:00 +26°C° 0 mm 3 mps 740 mmHg 75%
    20:00 +25°C° 0 mm 2 mps 741 mmHg 77%
    21:00 +24°C° 0 mm 2 mps 741 mmHg 79%
    22:00 +24°C° 0 mm 2 mps 741 mmHg 80%
    23:00 +23°C° 0 mm 2 mps 741 mmHg 80%

    27 August, Tuesday

    Time Temperature Precipitation Wind Pressure Humidity
    00:00 +23°C° 0 mm 2 mps 741 mmHg 81%
    01:00 +23°C° 0.1 mm 2 mps 741 mmHg 83%
    02:00 +23°C° 0.1 mm 2 mps 740 mmHg 84%
    03:00 +23°C° 0.1 mm 2 mps 740 mmHg 86%
    04:00 +23°C° 0.2 mm 2 mps 741 mmHg 88%
    05:00 +21°C° 0.2 mm 2 mps 741 mmHg 89%
    06:00 +21°C° 0.2 mm 2 mps 741 mmHg 90%
    07:00 +23°C° 0 mm 2 mps 742 mmHg 87%
    08:00 +25°C° 0 mm 3 mps 742 mmHg 83%
    09:00 +26°C° 0 mm 3 mps 742 mmHg 79%
    10:00 +27°C° 0 mm 3 mps 742 mmHg 75%
    11:00 +28°C° 0 mm 3 mps 742 mmHg 72%
    12:00 +29°C° 0 mm 4 mps 742 mmHg 68%
    13:00 +29°C° 0.1 mm 4 mps 741 mmHg 67%
    14:00 +29°C° 0.1 mm 4 mps 740 mmHg 67%
    15:00 +29°C° 0.1 mm 4 mps 739 mmHg 67%
    16:00 +28°C° 0 mm 4 mps 740 mmHg 71%
    17:00 +27°C° 0 mm 3 mps 740 mmHg 75%
    18:00 +26°C° 0 mm 3 mps 740 mmHg 79%
    19:00 +25°C° 0 mm 3 mps 740 mmHg 81%
    20:00 +25°C° 0 mm 3 mps 741 mmHg 82%
    21:00 +24°C° 0 mm 3 mps 741 mmHg 83%
    22:00 +24°C° 0 mm 3 mps 741 mmHg 84%
    23:00 +24°C° 0 mm 3 mps 741 mmHg 85%
    Show more